When you browse on this site, cookies collect data to enhance your experience and personalize the content and advertising you see.
Visit our Privacy Policy to learn more. By continuing to use the site, you agree to this use of cookies and data.
  • In Spain
  • List of Countries
  • For 7 days
  • Water Temperature
  • Weather Map
  • Weather Widgets
  • user-avatar
    Login

    Hourly Weather Saurimo

    Today, 17 October, Thursday

    Time Temperature Precipitation Wind Pressure Humidity
    00:00 +21°C° 0 mm 1 mps 670 mmHg 94%
    01:00 +21°C° 0 mm 1 mps 670 mmHg 92%
    02:00 +20°C° 0.1 mm 1 mps 670 mmHg 93%
    03:00 +20°C° 0.1 mm 1 mps 669 mmHg 94%
    04:00 +17°C° 0.1 mm 0 mps 669 mmHg 95%
    05:00 +19°C° 0 mm 0 mps 670 mmHg 92%
    06:00 +20°C° 0 mm 0 mps 670 mmHg 88%
    07:00 +21°C° 0 mm 0 mps 671 mmHg 83%
    08:00 +25°C° 0 mm 1 mps 672 mmHg 75%
    09:00 +27°C° 0 mm 1 mps 672 mmHg 67%
    10:00 +29°C° 0 mm 2 mps 672 mmHg 59%
    11:00 +29°C° 0 mm 2 mps 671 mmHg 55%
    12:00 +30°C° 0 mm 2 mps 671 mmHg 52%
    13:00 +31°C° 0 mm 2 mps 670 mmHg 49%
    14:00 +30°C° 0 mm 2 mps 670 mmHg 53%
    15:00 +30°C° 0 mm 1 mps 669 mmHg 58%
    16:00 +29°C° 0 mm 1 mps 668 mmHg 62%
    17:00 +27°C° 0.1 mm 1 mps 669 mmHg 69%
    18:00 +25°C° 0.1 mm 1 mps 669 mmHg 75%
    19:00 +23°C° 0.1 mm 1 mps 669 mmHg 82%
    20:00 +23°C° 0.1 mm 1 mps 669 mmHg 84%
    21:00 +22°C° 0.1 mm 1 mps 669 mmHg 87%
    22:00 +21°C° 0.1 mm 1 mps 669 mmHg 90%
    23:00 +21°C° 0 mm 1 mps 669 mmHg 91%

    Tomorrow, 18 October, Friday

    Time Temperature Precipitation Wind Pressure Humidity
    00:00 +21°C° 0 mm 1 mps 669 mmHg 92%
    01:00 +20°C° 0 mm 1 mps 668 mmHg 94%
    02:00 +20°C° 0 mm 1 mps 668 mmHg 94%
    03:00 +20°C° 0 mm 1 mps 668 mmHg 94%
    04:00 +19°C° 0 mm 1 mps 668 mmHg 94%
    05:00 +20°C° 0 mm 1 mps 669 mmHg 91%
    06:00 +22°C° 0 mm 1 mps 670 mmHg 87%
    07:00 +23°C° 0 mm 1 mps 670 mmHg 84%
    08:00 +25°C° 0 mm 1 mps 671 mmHg 75%
    09:00 +28°C° 0 mm 1 mps 671 mmHg 65%
    10:00 +31°C° 0 mm 1 mps 671 mmHg 56%
    11:00 +31°C° 0.1 mm 1 mps 671 mmHg 53%
    12:00 +31°C° 0.1 mm 1 mps 670 mmHg 49%
    13:00 +32°C° 0.1 mm 2 mps 670 mmHg 45%
    14:00 +31°C° 0 mm 1 mps 669 mmHg 48%
    15:00 +31°C° 0 mm 1 mps 668 mmHg 50%
    16:00 +30°C° 0 mm 1 mps 668 mmHg 53%
    17:00 +28°C° 0.1 mm 1 mps 668 mmHg 63%
    18:00 +25°C° 0.1 mm 2 mps 668 mmHg 73%
    19:00 +23°C° 0.1 mm 2 mps 668 mmHg 82%
    20:00 +21°C° 0 mm 2 mps 669 mmHg 85%
    21:00 +21°C° 0 mm 2 mps 669 mmHg 88%
    22:00 +21°C° 0 mm 1 mps 669 mmHg 91%
    23:00 +21°C° 0 mm 1 mps 669 mmHg 92%

    Day after tomorrow, 19 October, Saturday

    Time Temperature Precipitation Wind Pressure Humidity
    00:00 +20°C° 0 mm 1 mps 668 mmHg 93%
    01:00 +20°C° 0 mm 1 mps 668 mmHg 94%
    02:00 +20°C° 0 mm 1 mps 668 mmHg 95%
    03:00 +19°C° 0 mm 1 mps 668 mmHg 95%
    04:00 +19°C° 0 mm 1 mps 668 mmHg 96%
    05:00 +20°C° 0 mm 1 mps 669 mmHg 91%
    06:00 +22°C° 0 mm 1 mps 670 mmHg 85%
    07:00 +23°C° 0 mm 1 mps 671 mmHg 80%
    08:00 +25°C° 0 mm 1 mps 671 mmHg 72%
    09:00 +27°C° 0 mm 1 mps 671 mmHg 65%
    10:00 +29°C° 0 mm 2 mps 671 mmHg 57%
    11:00 +30°C° 0 mm 1 mps 671 mmHg 54%
    12:00 +32°C° 0 mm 1 mps 670 mmHg 50%
    13:00 +31°C° 0 mm 0 mps 670 mmHg 47%
    14:00 +30°C° 0 mm 0 mps 669 mmHg 49%
    15:00 +31°C° 0 mm 1 mps 668 mmHg 50%
    16:00 +30°C° 0 mm 1 mps 668 mmHg 52%
    17:00 +28°C° 0 mm 1 mps 668 mmHg 61%
    18:00 +26°C° 0 mm 2 mps 668 mmHg 69%
    19:00 +24°C° 0 mm 2 mps 669 mmHg 78%
    20:00 +23°C° 0 mm 2 mps 669 mmHg 81%
    21:00 +21°C° 0 mm 2 mps 669 mmHg 85%
    22:00 +21°C° 0 mm 2 mps 669 mmHg 88%
    23:00 +21°C° 0 mm 1 mps 669 mmHg 90%

    20 October, Sunday

    Time Temperature Precipitation Wind Pressure Humidity
    00:00 +21°C° 0 mm 1 mps 669 mmHg 93%
    01:00 +20°C° 0 mm 1 mps 668 mmHg 95%
    02:00 +20°C° 0 mm 1 mps 668 mmHg 96%
    03:00 +20°C° 0 mm 1 mps 668 mmHg 96%
    04:00 +19°C° 0 mm 1 mps 668 mmHg 97%
    05:00 +21°C° 0 mm 1 mps 669 mmHg 91%
    06:00 +22°C° 0 mm 1 mps 670 mmHg 85%
    07:00 +24°C° 0 mm 1 mps 671 mmHg 80%
    08:00 +26°C° 0 mm 1 mps 671 mmHg 72%
    09:00 +28°C° 0 mm 1 mps 671 mmHg 64%
    10:00 +30°C° 0 mm 2 mps 672 mmHg 56%
    11:00 +30°C° 0 mm 1 mps 671 mmHg 56%
    12:00 +30°C° 0 mm 1 mps 670 mmHg 56%
    13:00 +30°C° 0 mm 1 mps 669 mmHg 55%
    14:00 +30°C° 0.5 mm 1 mps 669 mmHg 60%
    15:00 +29°C° 0.5 mm 1 mps 668 mmHg 64%
    16:00 +28°C° 0.5 mm 2 mps 668 mmHg 69%
    17:00 +26°C° 0.3 mm 2 mps 668 mmHg 75%
    18:00 +24°C° 0.3 mm 2 mps 669 mmHg 81%
    19:00 +21°C° 0.3 mm 2 mps 669 mmHg 87%
    20:00 +21°C° 0 mm 2 mps 669 mmHg 88%
    21:00 +21°C° 0 mm 1 mps 669 mmHg 90%
    22:00 +21°C° 0 mm 1 mps 669 mmHg 92%
    23:00 +21°C° 0 mm 1 mps 669 mmHg 92%

    21 October, Monday

    Time Temperature Precipitation Wind Pressure Humidity
    00:00 +20°C° 0 mm 1 mps 669 mmHg 93%
    01:00 +20°C° 0 mm 1 mps 668 mmHg 93%
    02:00 +20°C° 0 mm 1 mps 668 mmHg 94%
    03:00 +19°C° 0 mm 1 mps 668 mmHg 95%
    04:00 +19°C° 0 mm 1 mps 668 mmHg 95%
    05:00 +20°C° 0 mm 1 mps 669 mmHg 91%
    06:00 +22°C° 0 mm 1 mps 670 mmHg 87%
    07:00 +23°C° 0 mm 1 mps 670 mmHg 83%
    08:00 +25°C° 0 mm 1 mps 670 mmHg 76%
    09:00 +26°C° 0 mm 2 mps 671 mmHg 70%
    10:00 +28°C° 0 mm 3 mps 671 mmHg 63%
    11:00 +29°C° 0 mm 2 mps 670 mmHg 59%
    12:00 +30°C° 0 mm 2 mps 670 mmHg 55%
    13:00 +31°C° 0 mm 2 mps 669 mmHg 50%
    14:00 +30°C° 0.4 mm 2 mps 669 mmHg 56%
    15:00 +29°C° 0.4 mm 2 mps 668 mmHg 61%
    16:00 +28°C° 0.4 mm 2 mps 667 mmHg 67%
    17:00 +26°C° 0.6 mm 1 mps 668 mmHg 74%
    18:00 +24°C° 0.6 mm 1 mps 668 mmHg 81%
    19:00 +22°C° 0.6 mm 1 mps 668 mmHg 88%
    20:00 +22°C° 0.1 mm 1 mps 668 mmHg 90%
    21:00 +22°C° 0.1 mm 1 mps 669 mmHg 91%
    22:00 +21°C° 0.1 mm 1 mps 669 mmHg 93%
    23:00 +21°C° 0.6 mm 1 mps 669 mmHg 94%

    22 October, Tuesday

    Time Temperature Precipitation Wind Pressure Humidity
    00:00 +21°C° 0.6 mm 1 mps 668 mmHg 95%
    01:00 +21°C° 0.6 mm 1 mps 668 mmHg 96%
    02:00 +20°C° 0 mm 1 mps 668 mmHg 96%
    03:00 +20°C° 0 mm 1 mps 668 mmHg 96%
    04:00 +20°C° 0 mm 1 mps 668 mmHg 96%
    05:00 +21°C° 0 mm 1 mps 668 mmHg 93%
    06:00 +21°C° 0 mm 2 mps 669 mmHg 90%
    07:00 +23°C° 0 mm 2 mps 669 mmHg 87%
    08:00 +25°C° 0 mm 2 mps 670 mmHg 77%
    09:00 +27°C° 0 mm 2 mps 670 mmHg 68%
    10:00 +29°C° 0 mm 2 mps 671 mmHg 58%
    11:00 +30°C° 0.2 mm 2 mps 670 mmHg 57%
    12:00 +30°C° 0.2 mm 2 mps 669 mmHg 57%
    13:00 +30°C° 0.2 mm 2 mps 669 mmHg 56%
    14:00 +29°C° 2.1 mm 2 mps 668 mmHg 64%
    15:00 +27°C° 2.1 mm 1 mps 667 mmHg 72%
    16:00 +26°C° 2.1 mm 1 mps 667 mmHg 81%
    17:00 +25°C° 0.2 mm 1 mps 667 mmHg 84%
    18:00 +24°C° 0.2 mm 1 mps 667 mmHg 87%
    19:00 +23°C° 0.2 mm 1 mps 667 mmHg 90%
    20:00 +22°C° 0 mm 1 mps 668 mmHg 91%
    21:00 +22°C° 0 mm 1 mps 668 mmHg 92%
    22:00 +22°C° 0 mm 1 mps 669 mmHg 92%
    23:00 +22°C° 0 mm 1 mps 668 mmHg 92%
    Show more